Weather History for Pompano Beach, FL

Change the Weather History Date:

Sunday, January 27, 2013

  Actual Average Record
Temperature  
Mean Temperature 70 °F -  
Max Temperature 78 °F 76 °F 89 °F (1984)
Min Temperature 63 °F 57 °F 39 °F (1978)
Cooling Degree Days 6    
Growing Degree Days 20 (Base 50)    
Moisture  
Dew Point 61 °F    
Average Humidity 69    
Maximum Humidity 93    
Minimum Humidity 54    
Precipitation  
Precipitation 0.00 in - - ()
Sea Level Pressure  
Sea Level Pressure 30.25 in    
Wind  
Wind Speed 8 mph (ENE)    
Max Wind Speed 15 mph    
Max Gust Speed -    
Visibility 10 miles    
Events      
Averages and records for this station are not official NWS values.
T = Trace of Precipitation, MM = Missing Value Source: NWS Daily Summary

Daily Weather History Graph

Daily Weather History Graph

Search for Another Location

Airport:

Trip Planner

Search our weather history database for the weather conditions in past years. The results will help you decide how hot, cold, wet, or windy it might be!

Date:

Astronomy

Jan. 27, 2013 Rise Set
Actual Time 7:06 AM EST 5:59 PM EST
Civil Twilight 6:42 AM EST 6:24 PM EST
Nautical Twilight 6:14 AM EST 6:52 PM EST
Astronomical Twilight 5:47 AM EST 7:19 PM EST
Moon 6:42 PM EST (1/27) 7:06 AM EST (1/27)
Length of Visible Light 11h 41m
Length of Day
10h 53m
Full, 100% of the Moon is Illuminated
Jan 27
Full
Feb 3
Last Quarter
Feb 10
New
Feb 17
First Quarter
Feb 25
Full

Hourly Weather History & Observations

Time (EST) Temp. Dew Point Humidity Pressure Visibility Wind Dir Wind Speed Gust Speed Precip Events Conditions
12:53 AM 70.0 °F 61.0 °F 73% 30.22 in 10.0 mi East 6.9 mph - N/A   Mostly Cloudy
1:53 AM 71.1 °F 61.0 °F 70% 30.22 in 10.0 mi East 6.9 mph - N/A   Scattered Clouds
2:53 AM 70.0 °F 61.0 °F 73% 30.22 in 10.0 mi East 4.6 mph - N/A   Partly Cloudy
3:53 AM 71.1 °F 62.1 °F 73% 30.21 in 10.0 mi East 5.8 mph - N/A   Overcast
4:53 AM 69.1 °F 61.0 °F 75% 30.21 in 10.0 mi Calm Calm - N/A   Clear
5:53 AM 63.0 °F 61.0 °F 93% 30.22 in 10.0 mi NNW 4.6 mph - N/A   Partly Cloudy
6:53 AM 63.0 °F 61.0 °F 93% 30.24 in 10.0 mi North 4.6 mph - N/A   Mostly Cloudy
7:53 AM 63.0 °F 61.0 °F 93% 30.26 in 10.0 mi Calm Calm - N/A   Mostly Cloudy
8:53 AM 70.0 °F 62.1 °F 76% 30.27 in 10.0 mi NNE 4.6 mph - N/A   Scattered Clouds
9:53 AM 75.9 °F 61.0 °F 60% 30.29 in 10.0 mi ENE 10.4 mph - N/A   Clear
10:53 AM 75.9 °F 60.1 °F 58% 30.29 in 10.0 mi ENE 11.5 mph - N/A   Partly Cloudy
11:53 AM 77.0 °F 60.1 °F 56% 30.28 in 10.0 mi ENE 15.0 mph - N/A   Scattered Clouds
12:53 PM 78.1 °F 60.1 °F 54% 30.26 in 10.0 mi ENE 13.8 mph - N/A   Scattered Clouds
1:53 PM 77.0 °F 59.0 °F 54% 30.25 in 10.0 mi ENE 12.7 mph - N/A   Scattered Clouds
2:53 PM 77.0 °F 59.0 °F 54% 30.23 in 10.0 mi East 11.5 mph - N/A   Clear
3:53 PM 75.9 °F 57.9 °F 54% 30.24 in 10.0 mi ENE 11.5 mph - N/A   Clear
4:53 PM 75.0 °F 57.9 °F 55% 30.25 in 10.0 mi ENE 10.4 mph - N/A   Clear
5:53 PM 73.0 °F 57.9 °F 59% 30.26 in 10.0 mi ENE 8.1 mph - N/A   Partly Cloudy
6:53 PM 72.0 °F 61.0 °F 68% 30.27 in 10.0 mi ENE 11.5 mph - N/A   Partly Cloudy
7:53 PM 72.0 °F 62.1 °F 71% 30.28 in 10.0 mi ENE 11.5 mph - N/A   Partly Cloudy
8:53 PM 73.0 °F 62.1 °F 68% 30.29 in 10.0 mi East 11.5 mph - N/A   Mostly Cloudy
9:53 PM 72.0 °F 63.0 °F 73% 30.29 in 10.0 mi East 12.7 mph - N/A   Partly Cloudy
10:53 PM 73.0 °F 63.0 °F 71% 30.29 in 10.0 mi East 11.5 mph - N/A   Scattered Clouds
11:53 PM 72.0 °F 63.0 °F 73% 30.27 in 7.0 mi East 13.8 mph - N/A   Scattered Clouds